www.pogodaiklimat.ru

Погода и климат >> Архив погоды >> Россия >> Ненецкий АО >> Усть-Кара


ПОГОДА в Усть-Каре

  • Прогноз погоды в Усть-Каре
  • Монитор погоды в Усть-Каре

АРХИВ ПОГОДЫ в Усть-Каре

Время (UTC), дата Ветер
(напр.,м/с)
 
Видим.   Явления Облачность Т
(С)
Тd
(С)
f
(%)
Тe
(С)
Тes
(С)
Комфортность P
(гПа)
Po
(гПа)
Тmin
(С)
Tmax
(С)
R
(мм)
R24
(мм)
S
(см)
18 16.08 Ю 5 10 км {ливн. осадки} 10/10 600 м
[Sc]
+12.8 +11.7 93 +11 +11 1002.5 1002.1
21 16.08 ЮВ 5 10 км 3/3 600 м
[Sc]
+10.0 +9.1 94 +7 +7 1001.8 1001.5
00 17.08 Ю 3 10 км {ливн. осадки} 10/10 600 м
[Sc]
+11.4 +10.4 94 +9 +9 1001.8 1001.4
03 17.08 Ю 3 10 км 10/10 600 м
[Sc]
+12.0 +11.6 97 +10 +10 1001.5 1001.1 +9.9 1
06 17.08 С 2 10 км 10/10 600 м
[Sc]
+12.7 +11.8 94 +12 +12 1003.1 1002.7
09 17.08 З 8-11
{11}
10 км 10/10 600 м
[Sc]
+11.3 +10.2 93 +8 +8 1005.8 1005.4
12 17.08 З 10-14
{15}
10 км в посл. час морось 10/10 300 м
[St]
+8.5 +8.0 97 +3 +3 1009.3 1008.9
15 17.08 З 8-12
{15}
10 км в посл. час морось {ливн. осадки} 10/10 300 м
[St]
+7.7 +7.1 96 +3 +3 1011.6 1011.2 +13.0 0.6
18 17.08 З 10-13
{14}
2000 м слаб. морось 10/10 300 м
[St]
+7.3 +7.0 98 +2 +2 1013.4 1013.1
21 17.08 З 9-11
{15}
10 км в посл. час морось 10/10 300 м
[St]
+7.7 +7.2 97 +2 +2 1015.7 1015.4
00 18.08 СЗ 8-10
{11}
10 км {морось} 9/9 600 м
[Sc]
+7.6 +6.6 93 +3 +3 1018.0 1017.6
03 18.08 СЗ 5
{10}
10 км 6/5 600 м
[Sc Ac trans]
+7.5 +6.3 92 +3 +4 1020.1 1019.7 +6.9 0.0
06 18.08 С 3 10 км 10/10 300 м
[St]
+6.5 +6.2 98 +3 +3 1021.6 1021.2 +6.4
09 18.08 С 2 10 км 10/10 300 м
[St]
+7.7 +7.6 99 +5 +5 1022.4 1022.0
12 18.08 С 2 10 км 9/9 600 м
[Sc]
+8.2 +7.6 96 +6 +6 1024.0 1023.6
15 18.08 штиль 0 10 км 10/10 600 м
[Sc]
+7.6 +7.0 96 +7 +7 1025.0 1024.6 +8.4
18 18.08 ЮЗ 3 10 км 10/10 600 м
[Sc]
+9.1 +7.6 90 +7 +7 1025.5 1025.1
21 18.08 Ю 4 10 км 10/10 600 м
[Sc]
+9.3 +8.2 93 +6 +6 1026.0 1025.6
00 19.08 Ю 5 10 км ясно +7.9 +7.2 95 +4 +4 1027.0 1026.6
03 19.08 Ю 6 10 км 6/6 600 м
[Sc]
+9.8 +8.6 92 +6 +6 1027.0 1026.6 +7.6
06 19.08 Ю 5 20 км 9/6 600 м
[Sc Ac trans]
+12.8 +10.8 88 +11 +11 1027.1 1026.7
09 19.08 ЮЗ 3 20 км 9/3 300 м
[Cu hum Ac trans]
+17.2 +13.3 78 +17 +19 1027.0 1026.6
12 19.08 СЗ 5 20 км 8/1 300 м
[Cu hum Ac trans Ci fib]
+16.3 +11.9 75 +15 +16 1027.5 1027.2
15 19.08 СЗ 4 20 км 1/1 600 м
[Sc]
+13.3 +10.9 85 +12 +12 1027.9 1027.5 +17.6
18 19.08 ЮЗ 1 10 км 1/1 600 м
[Sc]
+10.3 +9.6 95 +10 +10 1028.4 1028.0
21 19.08 Ю 2 10 км ясно +9.4 +9.2 99 +8 +8 1028.5 1028.1
00 20.08 Ю 2 10 км 3/0
[Ci fib]
+9.2 +9.1 99 +7 +7 1028.6 1028.2
03 20.08 Ю 2 500 м туман 4/4 300 м
[St]
+9.0 +9.0 100 +7 +8 1028.7 1028.3 +5.6
06 20.08 С 2 10 км в посл. час туман ясно +13.7 +12.1 90 +13 +19 1028.1 1027.7
09 20.08 СВ 4 20 км ясно +15.2 +11.9 81 +14 +18 1027.2 1026.8
12 20.08 В 5 20 км ясно +16.1 +11.5 74 +15 +16 1026.6 1026.3
15 20.08 В 4 20 км ясно +11.9 +10.4 91 +10 +10 1025.8 1025.5 +16.6
18 20.08 В 5 20 км ясно +8.8 +8.6 99 +5 +5 1025.4 1025.0
21 20.08 В 4 10 км ясно +7.9 +7.7 99 +4 +4 1024.8 1024.4
00 21.08 Ю 2 500 м туман ясно +6.0 +6.0 100 +3 +3 1024.1 1023.7
03 21.08 Ю 4 10 км в посл. час туман ясно +12.4 +11.0 91 +10 +12 1023.4 1023.0 +5.1
06 21.08 Ю 3 20 км {туман} 6/0
[Ci fib]
+17.3 +12.4 73 +17 +21 1022.2 1021.8
09 21.08 Ю 5 20 км 6/3 300 м
[Cu hum Ci fib]
+20.4 +11.1 55 +22 +24 комфорт 1020.7 1020.3
12 21.08 Ю 4 20 км 9/3 300 м
[Cu hum Ac trans Ci fib]
+19.9 +11.9 60 +22 +22 комфорт 1019.1 1018.7
15 21.08 ЮВ 4 20 км 10/3 600 м
[Sc Ac trans Ci fib]
+15.9 +12.9 82 +15 +15 1017.6 1017.2 +21.1
18 21.08 Ю 5 20 км 9/4 600 м
[Sc Ac trans]
+14.4 +11.4 82 +13 +13 1016.3 1015.9
21 21.08 Ю 4 20 км 9/8 600 м
[Sc Ac trans]
+13.8 +11.3 85 +12 +12 1014.8 1014.4
00 22.08 ЮВ 5 20 км в посл. час ливневой дождь 9/6 600 м
[Sc Ac trans]
+12.7 +11.1 90 +10 +10 1013.3 1012.9
03 22.08 Ю 5 20 км 10/3 600 м
[Sc Ac trans Ci fib]
+14.6 +11.4 81 +13 +13 1011.9 1011.5 +12.6 0.0
06 22.08 Ю 4 20 км 10/10 600 м
[Sc]
+14.3 +12.3 88 +13 +13 1010.9 1010.5
09 22.08 Ю 5 20 км 10/10 300 м
[St]
+15.3 +13.8 91 +14 +14 1010.8 1010.4
12 22.08 СЗ 7
{10}
4000 м слаб. ливневой дождь 10/10 300 м
[Cb cap]
+10.1 +9.5 96 +6 +6 1011.8 1011.4
15 22.08 З 5
{10}
10 км {ливн. осадки} 8/8 300 м
[St]
+10.3 +9.8 97 +7 +7 1012.7 1012.3 +15.9 2
18 22.08 З 3 10 км {ливн. осадки} 10/10 600 м
[Sc]
+9.8 +9.0 95 +7 +7 1012.7 1012.4
21 22.08 З 3 10 км {ливн. осадки} 10/10 600 м
[Sc]
+9.8 +9.0 95 +7 +7 1012.7 1012.4
00 23.08 ЮЗ 5 10 км ясно +7.8 +7.7 99 +4 +4 1011.8 1011.5
03 23.08 З 2 10 км 10/10 600 м
[Sc]
+9.0 +8.3 95 +7 +7 1011.3 1010.9 +7.8
06 23.08 С 1 2000 м слаб. морось 10/10 300 м
[St]
+9.2 +9.0 99 +8 +8 1010.5 1010.2
09 23.08 СВ 2 10 км {морось} 10/10 600 м
[Sc]
+10.6 +9.7 94 +9 +9 1010.0 1009.6
12 23.08 10 км {морось} н/о +9.7 +8.9 95 +7 +7 1009.8 1009.4

 

Местоположение метеостанции Усть-Кара (Ненецкий АО, Россия): широта 69.25 долгота 64.93 высота над уровнем моря 3 м.

В архиве по умолчанию представлена погода в Усть-Каре за последнюю неделю. Архивные данные за месяц целиком и за предыдущие месяцы, начиная с января 2011 года, Вы можете получить, выбрав интересующий диапазон дат из раскрывающегося списка и нажав кнопку "Ввод!".


*Определитесь, кто Вы:
робот инопланетянин человек

Внимание! Время в таблицах - всемирное. Для получения местного времени необходимо прибавить поправку, которая равна 3 ч.

Смотрите также архив погоды в соседних городах и на ближайших метеорологических станциях:

Погода в Марресале (Ямало-Ненецкий АО, Россия) (89 км)
Погода в Амдерме (Ненецкий АО, Россия) (139 км)
Погода на Мысе Белый Нос (Ненецкий АО, Россия) (189 км)
Погода в Воркуте (Коми, Россия) (201 км)
Погода в Елецкой (Коми, Россия) (247 км)
Погода в Имени Федорова (Ненецкий АО, Россия) (261 км)
Погода в Харпе (Ямало-Ненецкий АО, Россия) (275 км)
Погода в Варандее (Ненецкий АО, Россия) (279 км)
Погода в Белоярске (Ямало-Ненецкий АО, Россия) (296 км)
Погода в Сеяхе (Ямало-Ненецкий АО, Россия) (310 км)

Пояснения к столбцам:

Ветер - указаны скорость ветра в м/с - средняя за 10 мин, порывы в срок и между сроками (в фигурных скобках) и направление, откуда дует ветер: С - северный, СВ - северо-восточный, В - восточный, ЮВ - юго-восточный, Ю - южный, ЮЗ - юго-западный, З - западный, СЗ - северо-западный.
Видимость - горизонтальная дальность видимости в метрах или километрах. При видимости от 1 до 10 км при отсутствии осадков обычно наблюдается дымка, при ухудшении видимости до 1 км и менее - туман. В сухую погоду видимость может ухудшаться дымом, пылью или мглою.
Явления - указаны атмосферные явления, наблюдавшиеся в срок или в последний час перед сроком; фигурными скобками обозначены явления, наблюдавшиеся между сроками (за 1-3 часа до срока); квадратными скобками обозначены град или гололедные отложения с указанием их диаметра в мм.
Облачность - указаны через наклонную черту общая и нижняя облачность в баллах и высота нижней границы облаков в метрах; квадратными скобками обозначены формы облаков: Ci - перистые, Cs - перисто-слоистые, Cc - перисто-кучевые, Ac - высококучевые, As - высокослоистые, Sc - слоисто-кучевые, Ns - слоисто-дождевые, Cu - кучевые, Cb - кучево-дождевые. Подробнее классификацию облаков см. в Атласе облаков (PDF).
T - Температура воздуха - температура, измеренная на высоте 2 м над землей.
Td - Температура точки росы - температура, при понижении до которой содержащийся в воздухе водяной пар достигнет насыщения.
f - Относительная влажность воздуха - влажноcть воздуха, измеренная на высоте 2 м над землей.
Te - Эффективная температура - температура, которую ощущает одетый по сезону человек в тени. Характеристика душности погоды. При расчете учитывается влияние влажности воздуха и скорости ветра на теплоощущения человека.
Tes - Эффективная температура на солнце - температура, которую ощущает человек, с поправкой на солнечный нагрев. Характеристика знойности погоды. Зависит от высоты солнца над горизонтом, облачности и скорости ветра. Ночью, в пасмурную погоду, а также при ветре 12 м/с и более поправка равна нулю.
P - Атмосферное давление - приведенное к уровню моря атмосферное давление.
Po - Атмосферное давление - измеренное на уровне метеостанции атмосферное давление.
Tmin - Минимальная температура - минимум температуры воздуха на высоте 2 м над землей.
Tmax - Максимальная температура - максимум температуры воздуха на высоте 2 м над землей.
R - Количество осадков - Количество выпавших осадков за период времени, мм. При наведении курсора мыши на число - период времени, за который выпало указанное количество осадков.
R24 - Количество осадков - Количество выпавших осадков за 24 часа, мм.
S - Снежный покров - Высота снежного покрова, см. При наведении курсора мыши на число - состояние снежного покрова и степень покрытия местности в баллах.